sat.trackr.live / text

‹ back to catalog

COSMOS 2530 (RODNIK-S *)

NORAD 43751 · 2018-097A

PAYLOAD ACTIVE UNKNOWN

§ Identity

Operator
Country
CIS
Launch date
2018-11-30
Launch site
PLMSC
Launch vehicle
Mass (kg)
RCS (m²)

External: N2YO · Heavens-Above · Gunter

§ Orbital elements

Epoch: 2026-09-13T04:47:03.325056Z

Period
115.86 min
Inclination
82.5195°
Eccentricity
0.0018416
Mean motion
12.42882925 rev/d
Perigee alt
1,479.9 km
Apogee alt
1,508.9 km
Semi-major
7,872.5 km
B*
1.9677e-5
RAAN
167.6729°
Arg perigee
201.5090°
Mean anomaly
158.5218°
Rev number
35,322

§ Raw data

COSMOS 2530 (RODNIK-S *)1 43751U 18097A   26256.19934404  .00000013  00000+0  19677-4 0  99972 43751  82.5195 167.6729 0018416 201.5090 158.5218 12.42882925353225

JSON: /api/v1/satellites/43751 · /tle

For live sub-satellite position, see the globe view (requires WebGL).

§ Visibility from observer

Set your observer location to see the next 7 days of passes ≥ 10°. The values pass through the URL so the page stays shareable.

No JS? Fill the form by hand. The geolocation button needs JavaScript.

§ Radio — SatNOGS DB

ModeDescriptionDownlinkUplink
FM UHF Unknown 387.175 MHz
FM UHF Unknown 388.687 MHz

2 transmitters · refreshed weekly from db.satnogs.org